Talkeetna, AK

3:05 AM AKDT on August 25, 2016 (GMT -0800)
Talkeetna

Weather History for PATK - December, 2012

Change the Weather History Date:

Tuesday, December 11, 2012

  Actual Average Record
Temperature  
Mean Temperature 24 °F -  
Max Temperature 26 °F 22 °F 42 °F (1985)
Min Temperature 21 °F 5 °F -39 °F (1956)
Degree Days  
Heating Degree Days 42    
Moisture  
Dew Point 22 °F    
Average Humidity 96    
Maximum Humidity 100    
Minimum Humidity 86    
Precipitation  
Precipitation 0.00 in - - ()
Sea Level Pressure  
Sea Level Pressure 29.80 in    
Wind  
Wind Speed 4 mph (SSW)    
Max Wind Speed 9 mph    
Max Gust Speed 18 mph    
Visibility 5 miles    
Events Snow    
Averages and records for this station are not official NWS values.
T = Trace of Precipitation, MM = Missing Value Source: NWS Daily Summary

Daily Weather History Graph

Daily Weather History Graph

Search for Another Location

Airport or City:

Trip Planner

Search our weather history database for the weather conditions in past years. The results will help you decide how hot, cold, wet, or windy it might be!

Date:

Astronomy

Dec. 11, 2012 Rise Set
Actual Time 10:18 AM AKST 3:29 PM AKST
Civil Twilight 9:12 AM AKST 4:35 PM AKST
Nautical Twilight 8:09 AM AKST 5:37 PM AKST
Astronomical Twilight 7:14 AM AKST 6:33 PM AKST
Moon 8:04 AM AKST (12/11) 2:34 PM AKST (12/11)
Length of Visible Light 7h 23m
Length of Day
5h 11m
Waning Crescent, 3% of the Moon is Illuminated
Dec 11
Waning Crescent
Dec 12
New
Dec 19
First Quarter
Dec 28
Full
Jan 4
Last Quarter

Hourly Weather History & Observations

Time (AKST) Temp. Windchill Dew Point Humidity Pressure Visibility Wind Dir Wind Speed Gust Speed Precip Events Conditions
12:53 AM 25.0 °F 18.1 °F 24.1 °F 96% 29.79 in 2.5 mi South 5.8 mph - N/A   Overcast
1:14 AM 26.6 °F 19.1 °F 24.8 °F 93% 29.77 in 2.5 mi South 6.9 mph - N/A   Overcast
1:53 AM 26.1 °F 18.4 °F 24.1 °F 92% 29.81 in 4.0 mi South 6.9 mph - N/A   Overcast
3:11 AM 24.8 °F 19.1 °F 24.8 °F 100% 29.82 in 5.0 mi South 4.6 mph - N/A   Overcast
3:48 AM 24.8 °F 20.5 °F 24.8 °F 100% 29.83 in 5.0 mi SSE 3.5 mph - N/A   Overcast
3:53 AM 25.0 °F 20.7 °F 24.1 °F 96% 29.86 in 4.0 mi South 3.5 mph - N/A   Overcast
4:08 AM 24.8 °F 19.1 °F 24.8 °F 100% 29.84 in 1.8 mi South 4.6 mph - 0.00 in Snow Light Snow
4:19 AM 24.8 °F 16.9 °F 24.8 °F 100% 29.84 in 2.0 mi South 6.9 mph - 0.00 in Snow Light Snow
4:28 AM 24.8 °F 16.9 °F 24.8 °F 100% 29.84 in 4.0 mi SSW 6.9 mph - 0.00 in   Overcast
4:50 AM 24.8 °F 16.9 °F 24.8 °F 100% 29.85 in 2.0 mi SSW 6.9 mph - 0.00 in   Overcast
4:53 AM 25.0 °F 18.1 °F 24.1 °F 96% 29.87 in 2.0 mi SSW 5.8 mph - 0.00 in   Overcast
5:04 AM 24.8 °F 15.3 °F 24.8 °F 100% 29.85 in 8.0 mi SSW 9.2 mph - N/A   Overcast
5:53 AM 24.1 °F 15.2 °F 23.0 °F 96% 29.90 in 10.0 mi SSW 8.1 mph - N/A   Overcast
6:53 AM 23.0 °F - 23.0 °F 100% 29.91 in 3.0 mi Calm Calm - N/A   Overcast
7:50 AM 24.8 °F 19.1 °F 21.2 °F 86% 29.88 in 10.0 mi SSE 4.6 mph 18.4 mph N/A   Overcast
7:53 AM 24.1 °F 16.0 °F 21.9 °F 91% 29.90 in 10.0 mi SSE 6.9 mph 18.4 mph N/A   Overcast
8:53 AM 24.1 °F 16.0 °F 21.9 °F 91% 29.90 in 10.0 mi SSE 6.9 mph - N/A   Overcast
9:53 AM 24.1 °F 19.7 °F 23.0 °F 96% 29.91 in 5.0 mi SSE 3.5 mph - N/A   Overcast
10:53 AM 23.0 °F - 21.9 °F 96% 29.91 in 10.0 mi Calm Calm - N/A   Overcast
11:53 AM 23.0 °F 17.0 °F 23.0 °F 100% 29.92 in 5.0 mi West 4.6 mph - N/A   Overcast
12:42 PM 23.0 °F - 21.2 °F 93% 29.90 in 9.0 mi Calm Calm - N/A   Overcast
12:53 PM 24.1 °F - 23.0 °F 96% 29.92 in 10.0 mi Calm Calm - N/A   Overcast
1:53 PM 24.1 °F - 21.9 °F 91% 29.90 in 10.0 mi Calm Calm - N/A   Overcast
2:53 PM 24.1 °F 19.7 °F 21.9 °F 91% 29.89 in 10.0 mi NNW 3.5 mph - N/A   Overcast
3:53 PM 24.1 °F - 21.9 °F 91% 29.86 in 10.0 mi Calm Calm - N/A   Overcast
4:50 PM 24.8 °F - 21.2 °F 86% 29.83 in 10.0 mi Calm Calm - N/A   Overcast
4:53 PM 24.1 °F - 21.0 °F 88% 29.85 in 10.0 mi Calm Calm - N/A   Overcast
5:36 PM 23.0 °F - 21.2 °F 93% 29.81 in 10.0 mi Calm Calm - N/A   Overcast
5:53 PM 23.0 °F - 21.0 °F 92% 29.82 in 10.0 mi Calm Calm - N/A   Overcast
6:49 PM 21.2 °F - 21.2 °F 100% 29.78 in 10.0 mi Calm Calm - N/A   Overcast
6:53 PM 23.0 °F - 21.0 °F 92% 29.81 in 10.0 mi Calm Calm - N/A   Overcast
7:10 PM 21.2 °F - 21.2 °F 100% 29.77 in 10.0 mi Calm Calm - N/A   Overcast
7:44 PM 21.2 °F - 21.2 °F 100% 29.76 in 10.0 mi Calm Calm - N/A   Overcast
7:53 PM 21.9 °F - 21.0 °F 96% 29.78 in 10.0 mi Calm Calm - N/A   Overcast
8:39 PM 21.2 °F - 21.2 °F 100% 29.72 in 1.8 mi Calm Calm - 0.00 in Snow Light Snow
8:51 PM 21.2 °F - 21.2 °F 100% 29.72 in 0.8 mi Calm Calm - 0.01 in Snow Light Snow
8:53 PM 21.9 °F - 21.0 °F 96% 29.74 in 0.8 mi Calm Calm - 0.01 in Snow Light Snow
9:06 PM 21.2 °F 11.7 °F 21.2 °F 100% 29.70 in 0.8 mi NNE 8.1 mph - 0.02 in Snow Light Snow
9:53 PM 21.9 °F - 21.0 °F 96% 29.71 in 0.8 mi Calm Calm - 0.07 in Snow Light Snow
10:10 PM 21.2 °F - 21.2 °F 100% 29.68 in 1.0 mi Calm Calm - 0.01 in Snow Light Snow
10:23 PM 21.2 °F - 21.2 °F 100% 29.67 in 0.8 mi Calm Calm - 0.02 in Snow Light Snow
10:51 PM 21.2 °F - 21.2 °F 100% 29.65 in 1.0 mi Calm Calm - 0.05 in Snow Light Snow
10:53 PM 21.9 °F 17.2 °F 21.0 °F 96% 29.67 in 1.0 mi NNW 3.5 mph - 0.05 in Snow Light Snow
11:00 PM 21.2 °F - 21.2 °F 100% 29.64 in 0.8 mi Calm Calm - 0.01 in Snow Light Snow
11:17 PM 21.2 °F 16.4 °F 21.2 °F 100% 29.64 in 1.0 mi North 3.5 mph - 0.02 in Snow Light Snow
11:38 PM 21.2 °F - 21.2 °F 100% 29.63 in 0.8 mi Calm Calm - 0.04 in Snow Light Snow
11:46 PM 21.2 °F 14.9 °F 21.2 °F 100% 29.63 in 0.8 mi NNW 4.6 mph - 0.05 in Snow Light Snow
11:53 PM 21.9 °F 17.2 °F 21.0 °F 96% 29.65 in 1.0 mi NNW 3.5 mph - 0.06 in Snow Light Snow